FW7738 Weather Reports


time (UTC)temp
C
wind
direction
speed
KPH
gust
KPH
rain 1hr
cm
rain 24hr
cm
rain mn
cm
humidity
%
barometer
mb
20260510140035 22 148 12.9 22.5 0.00 0.03 0.00 51 1009.8
20260510135031 22 162 14.5 24.1 0.00 0.03 0.00 52 1009.9
20260510134025 22 173 16.1 29.0 0.00 0.03 0.00 53 1010.2
20260510133021 22 174 14.5 30.6 0.00 0.03 0.00 53 1010.3
20260510132016 23 173 14.5 24.1 0.00 0.03 0.00 53 1010.3
20260510131032 23 172 12.9 25.7 0.00 0.03 0.00 55 1010.3
20260510130035 23 174 8.0 20.9 0.00 0.03 0.00 48 1010.3
20260510125023 25 238 8.0 17.7 0.00 0.05 0.00 44 1010.5
20260510124019 24 225 4.8 12.9 0.00 0.05 0.00 42 1010.6
20260510123034 24 252 6.4 16.1 0.00 0.08 0.00 42 1010.7
20260510122030 25 243 4.8 14.5 0.00 0.10 0.00 43 1010.7
20260510121026 25 235 4.8 16.1 0.00 0.13 0.00 42 1010.8
20260510120022 24 235 6.4 14.5 0.00 0.15 0.00 42 1011.1
20260510115017 22 350 4.8 9.7 0.00 0.20 0.00 54 1011.2
20260510114033 22 139 4.8 12.9 0.00 0.25 0.00 55 1011.3
20260510113028 22 129 6.4 14.5 0.00 0.28 0.00 54 1011.5
20260510112023 22 162 3.2 9.7 0.00 0.33 0.00 50 1011.7
20260510111018 22 228 1.6 9.7 0.00 0.36 0.00 52 1011.8
20260510110035 22 197 4.8 12.9 0.00 0.41 0.00 52 1011.9
20260510105030 23 255 3.2 9.7 0.00 0.46 0.00 50 1011.9
20260510104025 22 143 3.2 6.4 0.00 0.51 0.00 52 1012.1
20260510103021 22 206 3.2 11.3 0.00 0.56 0.00 53 1012.2
20260510102057 21 263 1.6 9.7 0.00 0.58 0.00 54 1012.3
20260510101032 21 278 1.6 6.4 0.00 0.61 0.00 55 1012.4
20260510100027 21 149 3.2 6.4 0.00 0.71 0.00 56 1012.5
20260510095022 21 200 1.6 9.7 0.00 0.76 0.00 58 1012.7
20260510094037 20 213 6.4 11.3 0.00 0.84 0.00 59 1012.7
20260510093034 20 198 3.2 12.9 0.00 0.91 0.00 60 1012.9
20260510092029 20 225 3.2 6.4 0.00 0.97 0.00 61 1012.8
20260510091025 20 180 3.2 11.3 0.00 1.07 0.00 61 1012.9
20260510090020 20 234 1.6 6.4 0.00 1.12 0.00 63 1012.8
20260510085015 18 160 3.2 6.4 0.00 1.19 0.00 67 1012.9
20260510084051 18 213 1.6 3.2 0.00 1.30 0.00 71 1012.9
20260510083027 17 242 1.6 6.4 0.00 1.40 0.00 72 1013.0
20260510082042 17 211 1.6 4.8 0.00 1.45 0.00 75 1013.1
20260510081017 17 248 1.6 4.8 0.00 1.50 0.00 77 1013.1
20260510080033 17 238 3.2 4.8 0.00 1.52 0.00 79 1013.2
20260510075028 16 255 3.2 6.4 0.00 1.52 0.00 79 1013.2
20260510074044 16 268 1.6 4.8 0.00 1.52 0.00 80 1013.2
20260510073059 16 226 1.6 4.8 0.00 1.52 0.00 80 1013.1
20260510072034 16 274 3.2 6.4 0.00 1.52 0.00 80 1013.1
20260510071031 16 247 4.8 12.9 0.00 1.52 0.00 81 1013.0
20260510070025 15 254 3.2 6.4 0.00 1.52 0.00 83 1012.9
20260510065020 15 259 1.6 6.4 0.00 1.52 0.00 84 1012.8
20260510064016 15 312 0.0 3.2 0.00 1.52 0.00 84 1012.7
20260510063031 14 260 3.2 4.8 0.00 1.52 0.00 85 1012.5
20260510062026 14 250 3.2 11.3 0.00 1.52 0.00 85 1012.4
20260510061021 14 268 3.2 6.4 0.00 1.52 0.00 87 1012.5
20260510060037 13 250 3.2 6.4 0.00 1.52 0.00 88 1012.4
20260510055053 13 248 3.2 6.4 0.00 1.52 0.00 91 1012.2
20260510054049 13 244 3.2 9.7 0.00 1.52 0.00 93 1012.1
20260510053024 13 263 1.6 4.8 0.00 1.52 0.00 94 1012.0
20260510052019 13 248 1.6 4.8 0.00 1.52 0.00 95 1011.9
20260510051034 13 252 0.0 3.2 0.00 1.52 0.00 95 1011.8
20260510050030 13 290 0.0 1.6 0.00 1.52 0.00 95 1011.7
20260510045025 13 291 0.0 1.6 0.00 1.52 0.00 95 1011.8
20260510044020 13 260 1.6 3.2 0.00 1.52 0.00 95 1011.7
20260510043016 13 239 3.2 6.4 0.00 1.52 0.00 95 1011.6
20260510042031 13 246 1.6 3.2 0.00 1.52 0.00 95 1011.7
20260510041026 13 274 0.0 3.2 0.00 1.52 0.00 95 1011.8
20260510040022 13 263 0.0 1.6 0.00 1.52 0.00 95 1011.7
20260510035017 13 249 1.6 3.2 0.00 1.52 0.00 95 1011.7
20260510034033 13 298 0.0 1.6 0.00 1.52 0.00 95 1011.7
20260510033028 13 245 0.0 1.6 0.00 1.52 0.00 95 1011.6
20260510032024 13 280 0.0 1.6 0.00 1.52 0.00 95 1011.5
20260510031019 13 211 1.6 1.6 0.00 1.52 0.00 95 1011.7
20260510030034 13 0.0 0.0 0.00 1.52 0.00 94 1011.6
20260510025029 14 330 0.0 3.2 0.00 1.52 0.00 95 1011.7
20260510024025 14 306 1.6 1.6 0.00 1.52 0.00 95 1011.6
20260510023020 13 297 1.6 3.2 0.00 1.52 0.00 95 1011.8
20260510022016 13 303 1.6 3.2 0.00 1.52 0.00 95 1011.8
20260510021051 13 349 0.0 1.6 0.00 1.52 0.00 95 1011.7
20260510020027 13 337 0.0 1.6 0.00 1.52 0.00 95 1011.7
20260510015022 13 329 0.0 1.6 0.00 1.52 0.00 95 1011.7
20260510014017 13 10 3.2 6.4 0.00 1.52 0.00 95 1011.7
20260510013033 14 0.0 0.0 0.00 1.52 0.00 95 1011.7
20260510012028 14 0.0 0.0 0.00 1.52 0.00 95 1011.7
20260510011024 14 288 0.0 1.6 0.00 1.52 0.00 95 1011.9
20260510010019 15 303 1.6 3.2 0.00 1.52 0.00 95 1011.9
20260510005034 15 301 0.0 1.6 0.00 1.52 0.00 94 1012.1
20260510004030 15 314 1.6 3.2 0.00 1.52 0.00 94 1012.2
20260510003025 15 300 1.6 3.2 0.00 1.52 0.00 94 1012.2
20260510002021 15 289 1.6 3.2 0.00 1.52 0.00 94 1012.4
20260510001017 15 284 1.6 3.2 0.00 1.52 0.00 94 1012.4
20260510000032 15 331 1.6 3.2 0.00 1.52 1.52 94 1012.5
20260509235028 15 317 0.0 1.6 0.00 1.52 1.52 94 1012.4
20260509234023 15 288 0.0 1.6 0.00 1.52 1.52 94 1012.5
20260509233018 15 299 0.0 1.6 0.00 1.52 1.52 94 1012.6
20260509232034 15 308 0.0 1.6 0.00 1.52 1.52 93 1012.6
20260509231029 15 302 0.0 1.6 0.00 1.52 1.52 93 1012.7
20260509230025 15 292 0.0 1.6 0.00 1.50 1.50 93 1012.8
20260509225020 15 307 0.0 1.6 0.00 1.50 1.50 92 1012.6
20260509224016 15 357 1.6 3.2 0.00 1.50 1.50 92 1012.7
20260509223051 15 1 0.0 1.6 0.00 1.50 1.50 91 1012.8
20260509222046 15 0.0 0.0 0.00 1.50 1.50 91 1012.8
20260509221021 15 0.0 0.0 0.00 1.50 1.50 91 1012.8
20260509220017 15 281 1.6 3.2 0.00 1.50 1.50 91 1013.2
20260509215032 15 317 0.0 1.6 0.00 1.50 1.50 91 1013.3
20260509214027 15 321 3.2 6.4 0.00 1.50 1.50 90 1013.1
20260509213022 15 337 1.6 4.8 0.00 1.50 1.50 90 1012.7
20260509212018 15 316 3.2 3.2 0.00 1.50 1.50 90 1012.7
20260509211034 15 354 0.0 3.2 0.00 1.50 1.50 90 1012.5
20260509210029 15 354 0.0 1.6 0.00 1.50 1.50 89 1012.5
20260509205024 16 0.0 0.0 0.00 1.50 1.50 89 1012.5
20260509204020 16 0.0 0.0 0.00 1.50 1.50 88 1012.5
20260509203016 16 0.0 0.0 0.00 1.50 1.50 88 1012.4
20260509202031 16 0.0 0.0 0.00 1.50 1.50 88 1012.4
20260509201026 16 0.0 0.0 0.00 1.50 1.50 87 1012.2
20260509200042 16 120 0.0 1.6 0.00 1.50 1.50 86 1011.9
20260509195017 16 80 0.0 3.2 0.00 1.50 1.50 86 1011.7
20260509194033 16 76 0.0 1.6 0.00 1.50 1.50 86 1011.9
20260509193028 16 84 0.0 1.6 0.00 1.50 1.50 86 1011.8
20260509192023 16 0.0 0.0 0.00 1.50 1.50 86 1011.6
20260509191039 16 85 0.0 1.6 0.00 1.50 1.50 86 1011.3
20260509190034 16 80 0.0 1.6 0.00 1.50 1.50 85 1011.2
20260509185030 16 93 1.6 3.2 0.00 1.50 1.50 85 1011.1
20260509184025 16 97 1.6 4.8 0.00 1.50 1.50 84 1010.7
20260509183020 16 97 3.2 6.4 0.00 1.50 1.50 84 1010.7
20260509182016 16 100 4.8 9.7 0.00 1.50 1.50 83 1010.7
20260509181032 17 118 8.0 14.5 0.00 1.50 1.50 82 1010.6
20260509180047 17 122 11.3 16.1 0.00 1.50 1.50 81 1010.5
20260509175023 17 133 9.7 16.1 0.00 1.50 1.50 80 1010.4
20260509174018 17 145 8.0 16.1 0.00 1.50 1.50 78 1010.1
20260509173033 17 130 8.0 14.5 0.00 1.50 1.50 77 1009.9
20260509172029 17 124 11.3 20.9 0.00 1.50 1.50 76 1009.9
20260509171024 17 128 12.9 17.7 0.00 1.50 1.50 77 1009.7
20260509170020 18 136 8.0 16.1 0.00 1.50 1.50 78 1009.5
20260509165035 18 118 8.0 14.5 0.00 1.50 1.50 77 1009.6
20260509164030 18 132 6.4 12.9 0.00 1.50 1.50 77 1009.7
20260509163026 18 131 9.7 16.1 0.00 1.50 1.50 78 1009.8
20260509162021 18 92 4.8 16.1 0.00 1.50 1.50 74 1009.7
20260509161016 18 99 6.4 12.9 0.00 1.50 1.50 74 1009.9
20260509160032 18 87 4.8 12.9 0.00 1.50 1.50 75 1009.8
20260509155047 18 103 8.0 14.5 0.00 1.50 1.50 75 1010.0
20260509154023 18 79 3.2 9.7 0.00 1.50 1.50 77 1010.0
20260509153018 18 81 3.2 12.9 0.00 1.50 1.50 77 1010.1
20260509152034 18 78 3.2 11.3 0.00 1.50 1.50 77 1010.1
20260509151029 17 71 4.8 11.3 0.00 1.50 1.50 79 1009.9
20260509150025 17 61 3.2 14.5 0.00 1.50 1.50 80 1009.9
20260509145020 17 56 4.8 17.7 0.00 1.50 1.50 80 1010.1
20260509144055 17 47 3.2 11.3 0.00 1.50 1.50 79 1010.0
20260509143031 17 43 3.2 9.7 0.00 1.50 1.50 80 1010.0
20260509142026 17 54 3.2 11.3 0.00 1.50 1.50 83 1010.3
20260509141022 16 21 1.6 3.2 0.00 1.50 1.50 89 1010.3